TYVAK-0130 (48606 NORAD) Tracking and Keplerian Element Data

This shows tracking and keplerian element data for the satellite.

Feedback or suggestion? Click here.




ElementValue
Catalog48606
NameTYVAK-0130
Epoch Orbit1125
Epoch Day211.06358211
Epoch Year2021
RAAN142.568
Inclination53.0323
Eccentricity0.0014697
Argument of Perigee159.9387
Mean Anonmoly200.2178
Mean Motion14.96965821
Decay Rate3.9E-06
L11 48606U 21041BF 21211.06358211 .00000390 00000-0 56029-4 0 9993
L22 48606 53.0323 142.5680 0014697 159.9387 200.2178 14.96965821 11257

Live tracking and technical data element details for TYVAK-0130 (NORAD 48606). TYVAK-0130 can be tracked NOW for your location showing map with azimuth and elevation plus other details from your city location.

Track the satellite on the map from your city or location and see movement details for azimuth, elevation, latitude, longitude, range, height, and movement on the map or in text.







IsCatalogInMostPopularTable: catalog: 48606, numindb: 11
Update: records affected: 1



GetName: 48606 TYVAK-0130

Hit Count: updated at: Sat, 31 Jul 2021 14:56:34 GMT